Simultaneous Nadir Overpasses (SNOs) Predictions

Prediction of SNOs between NOAA-19 and TERRA Satellite Orbit:

Table of predicted SNOs for the next 14.0 days since TLE Epoch: 2/19/2015
Index Date (NOAA-19) Time (NOAA-19) Lat,Lon (NOAA-19) SZA (NOAA-19 ) Date (TERRA) Time (TERRA) Lat,Lon (TERRA) SZA (TERRA ) Distance(km) Time Diff (sec)
1 02/21/2015 12:41:53 72.34, -8.95 82.82 02/21/2015 12:43:00 72.25, -6.63 82.71 79.03 67
2 02/21/2015 13:32:33 -71.55, 159.86 98.00 02/21/2015 13:32:41 -71.54, 159.78 98.02 3.03 8
3 02/21/2015 14:23:26 70.81, -31.60 81.25 02/21/2015 14:22:18 70.90, -33.61 81.33 73.84 68
4 02/23/2015 18:16:05 -71.64, 88.85 98.72 02/23/2015 18:16:55 -71.64, 88.88 98.72 0.93 50
5 02/23/2015 19:07:10 71.53,-103.73 81.17 02/23/2015 19:06:22 71.54,-103.65 81.17 2.93 48
6 02/25/2015 22:59:51 -72.43, 16.45 98.73 02/25/2015 23:00:58 -72.31, 18.98 98.86 86.41 67
7 02/25/2015 23:50:41 71.59,-174.68 80.41 02/25/2015 23:50:37 71.57,-174.67 80.39 2.82 4
8 02/26/2015 00:41:25 -70.97, -6.28 100.23 02/26/2015 00:40:15 -71.02, -7.92 100.18 59.38 70
9 02/28/2015 04:34:12 71.66, 114.36 79.65 02/28/2015 04:34:51 71.63, 114.37 79.62 3.25 39
10 02/28/2015 05:25:06 -71.52, -78.12 100.50 02/28/2015 05:24:21 -71.52, -78.18 100.51 2.16 45
11 03/02/2015 09:17:50 72.09, 42.69 79.25 03/02/2015 09:19:00 71.94, 43.84 79.10 42.55 70
12 03/02/2015 10:08:38 -71.62,-149.15 101.24 03/02/2015 10:08:34 -71.62,-149.08 101.24 2.22 4
13 03/04/2015 14:52:09 -71.67, 139.91 102.03 03/04/2015 14:52:48 -71.64, 139.90 102.06 2.99 39
14 03/04/2015 15:43:12 71.56, -52.65 77.85 03/04/2015 15:42:15 71.53, -52.64 77.83 2.63 57




NCC Satellite Simultaneous Nadir Overpasses (SNOs) Prediction Service
